Bennington, VT

7:59 PM EDT on April 29, 2017 (GMT -0400)
Morse State

Weather History for KDDH - October, 2011

Change the Weather History Date:

Wednesday, October 19, 2011

  Actual Average Record
Temperature  
Mean Temperature 52 °F 46 °F  
Max Temperature 60 °F 58 °F 75 °F (2007)
Min Temperature 44 °F 35 °F 17 °F (2015)
Degree Days  
Heating Degree Days 13 19  
Month to date heating degree days 296  
Since 1 July heating degree days 574  
Cooling Degree Days 0 0  
Month to date cooling degree days 0  
Year to date cooling degree days 311  
Growing Degree Days 2 (Base 50)    
Moisture  
Dew Point 45 °F    
Average Humidity 70    
Maximum Humidity 90    
Minimum Humidity 46    
Precipitation  
Precipitation 0.09 in 0.12 in 1.08 in (2012)
Month to date precipitation 2.37  
Year to date precipitation 33.48  
Sea Level Pressure  
Sea Level Pressure 29.77 in    
Wind  
Wind Speed 7 mph (ESE)    
Max Wind Speed 20 mph    
Max Gust Speed 29 mph    
Visibility 10 miles    
Events Rain    
T = Trace of Precipitation, MM = Missing Value Source: NWS Daily Summary

Daily Weather History Graph

Daily Weather History Graph

Search for Another Location

Airport or City:

Trip Planner

Search our weather history database for the weather conditions in past years. The results will help you decide how hot, cold, wet, or windy it might be!

Date:

Astronomy

Oct. 19, 2011 Rise Set
Actual Time 7:10 AM EDT 6:04 PM EDT
Civil Twilight 6:42 AM EDT 6:33 PM EDT
Nautical Twilight 6:09 AM EDT 7:06 PM EDT
Astronomical Twilight 5:36 AM EDT 7:38 PM EDT
Moon 11:43 PM EDT (10/19) 1:44 PM EDT (10/19)
Length of Visible Light 11h 51m
Length of Day
10h 53m
Waning Gibbous, 55% of the Moon is Illuminated
Oct 19
Waning Gibbous
Oct 19
Last Quarter
Oct 26
New
Nov 2
First Quarter
Nov 10
Full

Hourly Weather History & Observations

Time (EDT) Temp. Dew Point Humidity Pressure Visibility Wind Dir Wind Speed Gust Speed Precip Events Conditions
12:54 AM 44.1 °F 41.0 °F 89% 29.93 in 10.0 mi Calm Calm - N/A   Partly Cloudy
1:54 AM 48.9 °F 39.0 °F 69% 29.92 in 10.0 mi NE 3.5 mph - N/A   Clear
2:54 AM 45.0 °F 42.1 °F 90% 29.91 in 10.0 mi Calm Calm - N/A   Scattered Clouds
4:54 AM 45.0 °F 41.0 °F 86% 29.91 in 10.0 mi Calm Calm - N/A   Partly Cloudy
6:54 AM 57.0 °F 37.0 °F 47% 29.88 in 10.0 mi East 10.4 mph - N/A   Scattered Clouds
7:54 AM 57.9 °F 37.9 °F 47% 29.90 in 10.0 mi ESE 11.5 mph 25.3 mph N/A   Overcast
8:54 AM 57.9 °F 37.0 °F 46% 29.91 in 10.0 mi ESE 8.1 mph 21.9 mph N/A   Scattered Clouds
9:54 AM 59.0 °F 37.9 °F 46% 29.88 in 10.0 mi ESE 13.8 mph 28.8 mph N/A   Scattered Clouds
10:54 AM 57.9 °F 39.9 °F 51% 29.87 in 10.0 mi ESE 13.8 mph 24.2 mph N/A   Overcast
11:54 AM 60.1 °F 41.0 °F 49% 29.86 in 10.0 mi ESE 9.2 mph 21.9 mph N/A   Overcast
12:54 PM 60.1 °F 43.0 °F 53% 29.81 in 10.0 mi East 16.1 mph 26.5 mph N/A   Overcast
1:54 PM 55.9 °F 46.9 °F 72% 29.79 in 6.0 mi East 5.8 mph 18.4 mph 0.04 in Rain Light Rain
2:54 PM 55.9 °F 48.9 °F 77% 29.76 in 10.0 mi East 16.1 mph 28.8 mph 0.03 in Rain Light Rain
4:46 PM 55.4 °F 51.8 °F 88% 29.72 in 10.0 mi Calm Calm - 0.02 in Rain Light Rain
4:54 PM 55.9 °F 50.0 °F 80% 29.74 in 10.0 mi NE 4.6 mph - 0.02 in Rain Light Rain
5:25 PM 55.4 °F 48.2 °F 77% 29.73 in 10.0 mi East 9.2 mph 23.0 mph 0.00 in   Overcast
5:54 PM 55.9 °F 48.9 °F 77% 29.72 in 10.0 mi East 10.4 mph - 0.00 in   Overcast
6:04 PM 55.4 °F 48.2 °F 77% 29.70 in 10.0 mi ESE 11.5 mph 17.3 mph N/A   Overcast
6:54 PM 55.9 °F 48.9 °F 77% 29.70 in 10.0 mi South 11.5 mph 27.6 mph N/A   Overcast
7:54 PM 57.9 °F 50.0 °F 75% 29.65 in 10.0 mi South 11.5 mph 20.7 mph N/A   Overcast
8:54 PM 57.0 °F 50.0 °F 77% 29.64 in 10.0 mi SE 17.3 mph 26.5 mph N/A   Overcast
9:54 PM 57.0 °F 50.0 °F 77% 29.61 in 10.0 mi East 8.1 mph - N/A   Overcast
10:10 PM 57.2 °F 50.0 °F 77% 29.59 in 10.0 mi East 19.6 mph 27.6 mph N/A   Overcast
10:54 PM 57.9 °F 50.0 °F 75% 29.57 in 10.0 mi ESE 15.0 mph 27.6 mph N/A   Partly Cloudy
11:54 PM 57.9 °F 50.0 °F 75% 29.52 in 10.0 mi ESE 16.1 mph 28.8 mph N/A   Overcast